Temp
18 18 19 20 20 21 22 23 23 24 24 25 25 26 26 27 27 24 25 30 30 29 27 23 25 25 25 27 28 29 31 33 33 33 35 36 35 33 34 32 32 31 31 30 25
17 18 18 19 19 20 21 22 23 24 24 25 25 25 26 27 26 24 30 30 29 29 25 26 27 27 28 29 29 30 31 33 34 35 35 36 35 34 33 32 31 29 28 26 24
17 18 18 19 19 20 20 21 22 24 25 25 25 25 25 26 26 32 31 31 30 28 28 28 28 29 29 29 30 31 33 34 34 35 35 35 35 35 34 32 34 32 28 27 25
17 17 18 19 19 20 21 21 22 24 25 25 25 25 25 26 32 31 31 31 32 29 28 29 29 29 30 31 32 31 33 34 35 35 35 35 36 35 35 37 35 33 29 27 27
16 17 17 18 19 20 21 22 23 23 25 26 26 26 26 27 29 31 30 29 28 28 29 31 31 31 31 31 31 31 34 34 35 33 34 35 35 36 35 36 33 30 28 28 28
16 16 17 18 18 20 21 22 23 24 25 26 26 25 24 27 30 30 28 28 28 26 29 30 32 32 31 31 31 32 33 33 34 34 34 35 36 35 37 34 31 29 28 29 28
15 15 16 17 18 19 21 22 22 24 25 25 25 23 24 29 29 28 28 28 29 29 30 29 30 31 31 31 31 32 32 34 35 35 35 35 34 34 36 33 31 29 29 29 28
14 15 16 17 18 20 22 22 23 23 24 25 23 21 27 28 28 28 29 28 29 27 27 29 29 31 30 31 31 32 31 32 35 33 35 34 35 36 35 33 32 30 29 28 28
14 15 16 17 18 19 22 23 23 22 23 22 21 22 27 28 28 28 28 29 28 27 26 29 29 30 30 31 31 30 32 31 32 33 33 34 33 35 34 34 33 30 29 29 28
14 15 15 17 17 19 22 23 22 22 22 22 21 24 27 29 27 28 28 28 30 29 28 29 29 30 30 31 31 33 30 30 31 33 34 33 33 35 35 34 33 32 30 29 29
14 14 15 16 17 19 22 22 23 24 21 24 24 24 26 26 25 27 28 28 29 29 30 28 29 29 31 32 33 31 30 30 31 32 31 32 32 34 35 34 33 32 30 30 30
14 14 15 16 17 20 20 20 18 18 21 21 21 21 22 24 26 29 26 28 29 30 28 28 29 30 31 31 30 30 30 31 31 31 32 33 33 34 34 34 34 33 31 31 30
13 14 14 16 18 18 17 16 16 16 21 24 24 25 27 25 27 28 28 28 29 28 29 30 31 30 30 30 30 31 30 31 30 32 31 31 33 33 35 34 34 33 32 32 31
13 13 13 16 17 15 17 16 17 16 24 26 27 28 28 26 27 28 28 29 28 29 29 29 30 30 30 30 31 30 32 31 31 31 31 31 31 33 34 33 33 35 33 32 32
13 13 12 13 13 15 17 17 17 18 27 26 27 27 27 28 28 30 28 28 29 29 28 30 29 29 30 31 31 31 32 31 32 31 29 31 31 33 33 33 34 35 34 34 33
13 13 13 13 12 17 17 18 18 24 25 25 26 25 26 27 27 28 28 28 28 28 28 29 29 29 32 31 31 31 30 29 28 30 30 31 31 33 33 34 35 35 34 34 34
14 15 15 14 16 16 17 19 24 25 24 24 25 25 24 26 27 27 27 28 28 27 28 28 30 30 30 30 30 30 30 29 29 29 30 29 29 32 34 34 34 34 34 33 33
15 16 17 16 16 17 17 24 24 23 23 24 24 24 25 26 27 26 27 28 27 28 27 27 29 29 31 30 31 30 31 30 28 29 31 28 31 33 33 32 33 32 31 31 31
16 17 17 17 17 17 22 23 23 23 23 23 24 24 25 25 25 26 27 27 28 27 26 27 28 30 29 32 32 29 29 32 30 28 28 31 31 33 34 33 30 29 28 29 29
14 14 16 18 17 17 23 20 21 22 23 23 23 23 24 25 25 26 26 28 27 27 26 27 27 30 30 30 31 31 31 30 29 28 28 30 30 31 32 29 28 28 27 28 29
13 19 18 17 17 21 22 21 21 23 22 23 23 23 24 24 24 25 26 27 27 27 27 27 26 29 29 30 30 30 30 30 30 29 29 28 30 31 29 25 25 26 25 27 28
12 21 18 19 22 16 21 20 19 23 23 23 23 23 24 24 24 25 25 25 27 26 25 26 26 27 28 30 28 29 29 30 30 27 29 30 30 24 24 24 24 24 23 24 27
14 15 18 17 21 20 19 20 21 22 22 23 23 23 23 24 23 24 25 26 26 25 26 26 26 26 28 29 29 27 27 28 27 27 29 30 30 23 24 24 23 24 23 22 23
14 20 19 17 15 19 19 20 21 21 22 22 23 23 23 23 23 23 24 25 26 25 23 24 25 26 26 27 27 26 27 26 27 27 29 30 31 23 22 22 22 23 22 22 21
13 15 13 19 18 17 17 18 20 21 21 21 22 22 21 22 23 23 24 24 25 25 25 24 25 25 26 26 26 26 28 26 26 25 25 28 29 22 21 21 22 22 22 22 22
15 15 13 15 14 16 16 18 19 19 19 22 21 21 21 21 23 22 23 22 22 24 23 24 24 25 25 27 27 26 26 25 24 23 26 24 22 21 20 21 21 22 23 22 22
9 9 14 13 15 17 18 18 18 17 20 20 20 19 21 22 22 22 22 22 22 22 22 21 23 24 25 26 26 26 23 23 21 21 21 22 23 21 20 20 19 19 20 20 20
Height
821 817 814 810 807 803 799 796 792 789 787 784 781 779 775 772 769 766 763 759 758 760 765 769 773 776 779 778 776 774 785 784 776 773 762 743 750 741 737 746 747 749 751 753 763
821 818 814 810 806 802 798 794 790 787 784 781 778 776 774 770 765 762 757 756 758 759 764 768 773 776 777 775 773 776 784 775 758 754 755 746 745 742 746 749 750 751 752 757 761
821 818 813 809 805 801 797 792 788 784 781 778 775 773 771 769 765 756 756 755 758 762 764 768 770 773 778 772 770 769 772 757 754 747 746 746 744 735 741 750 737 741 748 756 759
821 817 813 808 804 799 795 790 785 780 776 774 772 770 769 769 778 754 754 755 755 759 763 767 771 774 777 776 763 775 756 752 747 745 747 748 739 739 735 724 724 730 739 749 754
821 816 812 807 802 797 792 786 781 777 772 770 769 768 768 769 761 753 753 753 755 757 759 761 766 767 774 769 766 768 754 749 744 748 746 740 741 737 732 719 724 732 741 745 750
820 815 810 805 800 794 788 782 777 772 768 764 764 764 767 773 753 752 753 755 757 760 759 758 756 757 763 765 767 757 756 752 747 745 746 744 736 736 722 720 729 733 738 740 745
819 814 808 802 796 790 784 778 774 769 765 761 760 762 765 756 751 752 754 755 756 754 754 756 758 760 760 764 754 754 763 751 745 741 743 739 748 740 720 722 729 733 735 738 741
817 812 806 800 794 786 779 774 768 766 764 761 758 762 759 751 750 749 750 750 751 751 753 755 755 756 759 755 759 765 765 771 744 746 738 744 755 728 721 724 727 730 734 736 739
815 810 804 799 793 785 776 770 765 765 764 762 762 762 757 749 748 747 748 748 748 749 750 752 754 756 758 766 771 769 774 774 763 746 746 747 755 732 724 723 724 725 728 733 738
815 809 803 797 791 782 773 766 765 764 763 762 762 764 752 751 748 745 745 746 746 747 751 754 756 760 764 766 778 765 775 773 774 752 746 747 747 730 723 722 718 718 723 727 729
814 808 802 795 789 781 772 766 768 766 766 766 766 765 754 750 745 742 741 743 743 747 756 754 763 766 757 751 748 759 766 772 761 750 757 750 748 729 718 716 715 714 719 721 723
811 805 799 793 787 782 778 780 788 790 779 766 766 764 756 754 751 740 741 747 746 752 752 759 759 749 745 746 756 759 764 765 756 750 751 742 741 724 718 714 708 710 714 715 722
809 804 798 790 785 784 784 785 786 785 783 766 761 759 753 754 750 743 740 740 746 753 750 753 746 740 746 748 757 754 761 758 763 748 746 749 743 732 712 709 705 702 704 708 711
808 804 798 790 788 786 785 785 783 782 783 772 761 757 752 751 751 737 737 739 744 746 742 744 734 742 746 748 747 758 743 748 754 758 766 747 768 738 721 717 710 699 700 701 703
806 802 797 793 790 787 786 784 782 784 792 772 764 755 753 755 749 737 735 738 744 742 746 740 739 742 744 739 734 744 734 743 745 752 760 751 762 738 723 721 708 696 695 691 691
803 799 793 789 788 785 783 782 783 786 797 780 770 770 763 756 753 744 740 736 736 743 740 739 732 734 726 723 726 728 740 748 756 752 767 748 752 740 725 714 703 694 689 686 684
799 794 787 786 786 783 782 781 789 792 785 788 781 773 775 768 758 755 754 749 755 762 754 741 734 722 722 732 728 732 743 764 769 768 760 747 754 733 707 699 699 696 692 691 686
795 789 787 786 784 782 781 781 798 797 792 781 781 776 778 770 762 762 758 758 752 753 757 758 751 727 713 721 726 731 733 753 777 767 750 747 746 722 702 698 695 696 692 688 685
792 789 788 787 784 783 780 792 796 795 789 788 781 783 780 774 776 767 763 763 755 753 770 761 749 717 717 707 710 734 742 717 742 753 759 738 726 705 692 692 698 699 695 690 682
794 791 790 787 785 784 783 801 796 791 787 787 794 788 791 781 778 771 768 754 758 751 750 751 759 722 716 711 709 712 710 739 739 766 767 740 738 730 707 709 703 699 697 689 679
795 791 790 788 786 783 793 798 795 784 786 789 789 789 786 786 781 777 772 756 754 750 747 748 756 736 723 722 722 722 723 723 723 735 750 755 734 704 711 716 713 705 701 690 680
799 792 790 787 788 804 796 798 794 786 782 784 784 785 784 783 781 779 776 766 751 756 758 748 750 753 739 717 717 718 720 720 730 747 727 730 723 718 718 715 710 709 705 696 684
803 801 791 788 793 797 799 796 793 788 786 783 783 780 779 782 787 778 771 756 755 758 757 750 752 757 742 727 720 732 725 725 730 727 722 729 719 720 717 715 714 709 708 704 698
806 796 794 796 805 800 801 799 795 787 787 785 783 779 781 782 780 779 773 761 753 753 751 753 754 751 756 746 735 738 733 730 728 735 717 706 701 725 725 720 718 712 711 707 708
810 809 813 801 803 805 805 803 798 794 788 786 783 784 789 788 780 779 769 764 754 749 749 753 756 749 738 736 735 736 725 730 732 730 736 717 708 730 732 725 722 716 711 711 711
810 809 814 810 812 806 807 801 799 796 797 787 788 785 784 786 777 777 769 770 767 752 756 753 756 747 744 727 729 731 728 728 731 733 719 729 739 733 730 726 725 717 711 715 716
815 815 812 814 809 805 800 800 799 802 790 789 790 792 783 776 774 768 763 761 761 762 761 763 756 752 749 731 733 737 739 738 744 737 737 739 728 733 731 732 732 725 721 722 720
Wind_Speed
27 28 29 28 28 28 27 26 26 25 24 24 23 22 22 22 23 12 7 5 7 17 19 19 11 13 14 6 6 2 3 4 2 3 9 8 7 1 2 11 6 10 4 5 24
28 29 30 29 30 30 29 28 28 27 25 24 23 22 21 21 18 8 3 4 7 23 21 20 11 14 5 4 5 5 4 4 3 5 6 12 8 5 7 9 8 8 5 19 27
28 29 30 30 32 32 32 31 31 28 25 23 21 20 19 17 5 2 8 6 7 19 13 12 14 8 4 4 7 6 6 8 7 10 6 8 10 5 7 10 14 17 16 19 24
30 30 30 31 32 33 32 33 33 28 24 23 21 18 16 6 4 3 3 1 13 18 13 7 10 5 4 6 8 7 12 11 5 4 4 6 5 5 12 17 2 10 21 23 21
31 31 32 32 33 34 33 34 31 26 26 24 19 14 5 1 8 8 5 5 21 17 10 9 9 5 7 4 6 13 13 8 11 6 8 9 11 8 11 13 4 16 19 23 21
31 33 33 33 35 35 33 34 27 27 24 21 14 8 3 7 4 4 2 10 7 9 6 9 7 7 6 6 6 5 11 13 11 10 9 9 10 4 5 4 10 17 20 21 23
31 34 34 34 36 36 37 28 30 22 17 16 9 6 4 13 2 2 3 3 7 10 7 9 3 6 1 4 3 5 9 13 14 12 10 8 7 9 2 6 10 15 17 19 21
32 34 35 35 37 37 34 30 27 9 10 10 2 4 6 3 8 10 9 3 6 12 14 7 6 4 5 3 2 4 2 10 6 4 4 4 17 11 2 3 11 14 15 18 20
32 33 34 35 35 37 28 27 13 4 7 6 2 0 5 7 1 2 3 5 9 1 4 3 7 4 5 7 6 4 11 8 8 3 3 4 13 6 7 11 14 14 16 17 16
30 32 33 35 36 32 27 17 5 4 5 3 1 3 4 4 7 13 16 11 3 1 4 6 4 6 4 8 10 9 5 3 5 5 12 17 15 16 14 15 15 13 15 18 20
29 31 34 36 39 20 25 5 5 1 6 3 5 5 9 13 11 5 3 4 2 2 5 7 7 12 17 18 14 6 7 8 9 10 9 9 14 21 16 11 12 11 15 18 21
29 32 35 37 37 13 10 5 5 3 6 2 5 7 10 6 5 3 4 5 5 8 4 5 14 12 14 13 13 12 11 11 9 5 6 16 17 14 8 7 10 10 15 18 17
28 31 36 35 22 10 5 10 7 1 3 5 3 4 6 2 4 5 4 2 6 5 10 15 9 13 13 15 12 13 12 14 9 9 7 9 10 7 16 13 10 12 13 15 20
27 31 35 39 5 17 2 1 18 6 2 7 3 3 5 4 5 6 5 4 3 8 11 10 10 13 14 17 14 17 13 14 10 9 11 2 11 13 9 9 9 12 12 16 19
27 30 35 33 16 5 2 13 7 3 0 10 4 5 13 2 9 3 2 1 7 6 4 6 8 13 17 19 17 15 14 13 14 12 6 8 6 7 7 9 11 12 14 17 19
30 34 37 12 10 6 10 11 4 2 1 4 5 8 11 3 3 7 4 2 1 3 5 13 3 5 14 12 16 5 7 2 1 5 9 10 7 5 5 5 8 10 12 17 16
33 34 22 8 2 11 12 2 1 1 2 7 6 9 6 5 6 7 7 7 9 7 8 8 7 10 13 13 6 10 7 5 6 6 11 6 6 6 11 12 12 14 12 13 16
34 21 6 7 11 8 3 1 1 1 3 2 5 7 3 8 4 8 8 8 3 9 8 5 6 5 12 20 16 13 12 7 9 7 9 6 8 4 8 10 9 9 11 13 14
29 9 3 12 6 6 0 2 2 1 2 7 5 4 5 3 4 7 6 4 5 10 7 5 6 10 10 11 15 6 7 13 11 1 6 5 5 11 7 13 15 15 14 15 16
18 7 7 4 7 3 2 2 1 3 2 1 2 1 4 7 7 7 5 3 9 8 9 2 7 5 5 3 6 10 8 4 4 8 11 9 12 11 17 13 16 19 18 17 14
5 1 5 9 6 2 3 1 3 5 5 4 1 2 2 3 4 4 4 8 11 15 10 6 2 9 7 3 6 4 5 4 2 4 7 12 13 6 9 6 10 13 14 14 11
4 1 8 6 1 2 2 1 3 3 1 2 2 3 2 2 4 3 4 4 13 13 11 4 4 6 15 14 7 6 5 6 7 7 7 8 14 1 4 4 5 8 9 9 6
3 3 5 4 2 2 1 2 2 3 3 3 2 1 1 2 4 4 4 9 12 13 7 7 2 7 11 1 1 4 6 8 7 2 15 12 5 4 3 5 7 8 9 8 8
2 1 2 3 2 2 1 1 3 3 3 4 3 2 3 3 3 5 6 7 16 13 14 3 4 6 7 9 5 12 11 5 3 5 12 18 12 3 6 7 6 9 10 12 12
3 2 2 1 2 1 1 1 2 3 1 3 2 3 4 4 6 5 9 13 15 12 5 5 8 4 10 12 9 14 16 7 6 3 4 16 15 4 2 5 7 8 9 11 13
2 1 1 1 1 2 1 3 2 2 3 1 1 10 7 6 8 14 16 13 10 10 6 5 5 10 15 10 7 12 6 9 5 10 6 4 3 3 2 6 7 6 8 10 10
1 1 2 2 0 2 1 2 3 3 5 8 5 8 11 7 10 19 20 20 17 15 9 5 4 5 12 9 11 9 3 3 1 7 7 11 3 7 7 7 4 5 7 10 12
Wind_Direction
16 12 9 5 2 358 353 348 344 342 342 340 337 336 333 331 327 304 251 255 195 173 161 143 142 154 167 198 211 214 255 279 262 305 320 325 322 216 203 142 166 180 186 134 145
11 9 5 3 359 355 351 346 342 338 337 333 332 332 331 330 318 268 316 241 201 173 151 162 161 159 186 218 194 207 236 246 266 303 296 309 309 202 186 165 178 167 113 141 147
5 2 1 358 354 351 349 345 340 335 329 326 324 326 328 331 289 211 56 83 162 172 180 158 159 170 223 212 194 196 241 226 235 279 289 312 301 202 221 210 202 197 162 163 160
360 356 354 353 350 347 345 341 336 328 322 319 317 319 327 335 298 144 20 26 162 169 148 166 154 194 225 222 214 240 247 245 256 223 287 288 302 258 226 253 230 185 165 165 171
356 352 350 349 347 344 341 337 332 329 318 313 310 308 328 344 251 287 330 155 172 184 183 179 189 207 251 254 276 242 262 264 265 215 264 265 250 268 254 248 153 152 160 174 181
353 351 347 345 344 341 338 334 330 324 318 311 300 274 139 266 229 271 150 127 179 191 210 189 215 214 256 247 238 297 304 283 293 286 259 240 245 210 277 180 158 162 177 182 187
349 348 346 344 342 339 335 331 328 322 325 320 303 180 171 246 232 154 172 292 258 213 211 221 247 214 205 251 236 257 281 296 284 298 291 242 251 216 227 190 186 187 188 188 191
347 346 344 343 342 337 333 329 326 323 1 2 103 132 246 292 294 296 276 249 294 255 241 265 172 222 209 258 275 286 231 256 271 300 298 267 274 234 257 235 224 196 194 195 195
345 343 341 341 341 337 331 328 323 300 337 14 30 129 267 309 259 305 201 330 309 340 197 130 166 201 172 220 251 202 262 248 296 320 315 12 308 334 314 307 262 202 198 199 197
343 342 340 340 342 341 337 327 337 340 339 336 334 268 246 313 295 287 278 266 236 65 111 189 199 207 185 206 238 241 219 189 282 301 302 296 286 296 290 293 256 212 201 199 200
339 341 339 340 343 348 349 1 360 34 35 310 304 273 280 308 290 242 235 151 162 175 228 183 209 212 213 224 249 240 261 279 271 269 286 289 294 295 309 292 250 212 207 208 208
338 340 339 339 342 352 10 67 82 310 312 286 257 266 275 290 301 333 157 190 183 220 178 194 236 225 232 247 233 244 263 269 280 249 286 303 299 299 306 288 263 236 219 215 199
335 339 338 338 342 358 41 119 4 9 281 306 238 272 301 209 306 279 201 191 223 215 220 242 250 224 219 234 237 239 249 265 264 292 247 286 279 310 311 287 279 243 232 221 210
335 338 337 336 345 340 30 102 335 167 340 358 10 40 309 292 271 230 219 258 226 241 235 241 226 219 224 238 237 256 239 260 262 277 293 311 297 299 299 300 273 264 237 229 218
335 335 333 334 298 296 302 329 342 156 195 340 360 311 319 334 322 50 313 144 258 256 207 244 215 209 223 228 222 252 256 266 275 266 271 250 250 279 282 280 260 245 241 242 230
333 332 328 329 299 282 318 328 156 257 76 9 329 347 350 356 309 308 345 8 297 291 249 264 292 275 246 226 228 214 224 209 193 250 252 245 231 253 264 279 285 257 245 249 245
333 331 323 312 290 312 329 221 246 1 328 356 332 336 329 317 331 0 341 4 31 339 336 307 256 250 238 247 163 185 186 239 233 213 256 143 200 253 271 273 265 285 306 301 285
334 338 347 349 320 306 320 148 100 37 353 334 324 322 350 350 333 332 347 13 63 13 308 313 299 212 209 220 226 202 209 235 257 244 261 160 263 264 285 308 332 337 330 314 303
339 352 28 347 13 350 265 79 92 173 312 327 324 17 353 354 339 345 342 308 352 10 352 303 284 302 249 230 195 171 202 236 247 187 253 258 264 277 279 336 345 340 339 329 311
338 335 351 351 337 344 74 108 229 235 306 305 356 333 347 335 335 342 330 347 360 1 347 290 294 316 317 298 236 209 158 199 207 231 260 261 285 287 297 322 330 341 337 332 322
348 234 355 338 339 50 77 81 283 266 235 206 257 294 308 308 309 311 323 316 7 342 339 317 259 310 307 300 318 188 207 208 186 184 253 272 270 258 262 310 323 331 333 331 333
342 232 346 349 22 22 82 310 324 304 342 256 232 244 273 287 298 288 300 293 339 345 327 335 298 304 307 296 304 276 309 270 240 201 227 261 268 26 339 334 338 339 330 336 345
6 302 346 356 126 83 348 300 281 317 318 327 286 290 29 283 297 274 308 312 315 342 334 330 260 311 318 113 23 351 18 344 298 241 236 230 232 71 42 39 18 8 8 10 27
324 301 26 55 25 83 20 33 322 309 280 325 284 329 337 277 222 288 281 306 314 311 305 261 264 245 282 286 302 294 313 341 269 282 272 231 223 156 44 54 37 47 32 41 50
6 66 29 40 86 52 252 310 286 320 334 327 205 30 314 271 281 261 287 302 300 320 327 350 287 248 262 269 277 274 292 309 314 340 270 310 296 65 44 49 80 78 74 68 67
350 286 145 110 286 253 194 194 230 305 267 221 324 335 325 255 274 297 301 296 284 299 315 357 291 308 291 295 293 285 323 331 348 4 349 357 93 133 169 81 67 77 75 74 71
88 83 281 78 142 241 219 188 180 355 235 256 319 333 301 306 307 285 279 272 263 273 290 292 285 275 283 292 300 280 307 328 50 32 359 300 160 170 120 86 74 54 47 68 72